| time (UTC) | temp C | wind direction | speed KPH | gust KPH | rain 1hr cm | rain 24hr cm | rain mn cm | humidity % | barometer mb |
| 20260507032716 | 8 | 322 | 0.0 | 0.0 | 0.00 | 1.19 | 1.19 | 91 | 1018.4 |
| 20260507032212 | 8 | 322 | 0.0 | 0.0 | 0.00 | 1.19 | 1.19 | 90 | 1018.4 |
| 20260507031709 | 8 | 322 | 0.0 | 0.0 | 0.00 | 1.19 | 1.19 | 90 | 1018.4 |
| 20260507031205 | 8 | 322 | 0.0 | 0.0 | 0.00 | 1.19 | 1.19 | 90 | 1018.6 |
| 20260507030702 | 8 | 322 | 0.0 | 0.0 | 0.00 | 1.19 | 1.19 | 90 | 1018.4 |
| 20260507030200 | 8 | 322 | 0.0 | 0.0 | 0.00 | 1.19 | 1.19 | 89 | 1018.6 |
| 20260507025657 | 8 | 322 | 0.0 | 0.0 | 0.00 | 1.19 | 1.19 | 89 | 1018.6 |
| 20260507025154 | 8 | 322 | 0.0 | 0.0 | 0.00 | 1.19 | 1.19 | 89 | 1018.7 |
| 20260507024652 | 8 | 322 | 0.0 | 0.0 | 0.00 | 1.19 | 1.19 | 88 | 1018.4 |
| 20260507024149 | 8 | 322 | 0.0 | 0.0 | 0.00 | 1.19 | 1.19 | 88 | 1018.5 |
| 20260507023644 | 8 | 319 | 0.0 | 0.0 | 0.00 | 1.19 | 1.19 | 88 | 1018.6 |
| 20260507023142 | 8 | 319 | 0.0 | 0.0 | 0.00 | 1.19 | 1.19 | 88 | 1018.6 |
| 20260507022639 | 8 | 319 | 0.0 | 0.0 | 0.00 | 1.19 | 1.19 | 88 | 1018.8 |
| 20260507022134 | 8 | 319 | 0.0 | 0.0 | 0.00 | 1.19 | 1.19 | 88 | 1018.5 |
| 20260507021631 | 8 | 319 | 0.0 | 0.0 | 0.00 | 1.19 | 1.19 | 88 | 1018.4 |
| 20260507021126 | 8 | 319 | 0.0 | 0.0 | 0.00 | 1.19 | 1.19 | 87 | 1018.2 |
| 20260507020625 | 9 | 319 | 0.0 | 0.0 | 0.00 | 1.19 | 1.19 | 86 | 1018.1 |
| 20260507020121 | 9 | 319 | 0.0 | 0.0 | 0.00 | 1.19 | 1.19 | 85 | 1018.2 |
| 20260507015619 | 9 | 319 | 0.0 | 0.0 | 0.00 | 1.19 | 1.19 | 85 | 1018.3 |
| 20260507015116 | 9 | 319 | 0.0 | 0.0 | 0.00 | 1.19 | 1.19 | 85 | 1018.3 |
| 20260507014613 | 9 | 319 | 0.0 | 0.0 | 0.00 | 1.19 | 1.19 | 85 | 1018.0 |
| 20260507014109 | 10 | 319 | 0.0 | 0.0 | 0.00 | 1.19 | 1.19 | 84 | 1018.0 |
| 20260507013606 | 10 | 319 | 0.0 | 0.0 | 0.00 | 1.19 | 1.19 | 83 | 1018.2 |
| 20260507013103 | 10 | 319 | 0.0 | 0.0 | 0.00 | 1.19 | 1.19 | 83 | 1018.1 |
| 20260507012600 | 10 | 319 | 0.0 | 0.0 | 0.00 | 1.19 | 1.19 | 83 | 1018.1 |
| 20260507012055 | 10 | 319 | 0.0 | 0.0 | 0.00 | 1.19 | 1.19 | 82 | 1017.9 |
| 20260507011554 | 10 | 319 | 0.0 | 0.0 | 0.00 | 1.19 | 1.19 | 82 | 1017.9 |
| 20260507011050 | 10 | 319 | 0.0 | 0.0 | 0.00 | 1.19 | 1.19 | 80 | 1017.9 |
| 20260507010544 | 10 | 319 | 0.0 | 0.0 | 0.00 | 1.19 | 1.19 | 83 | 1018.0 |
| 20260507010041 | 10 | 319 | 0.0 | 0.0 | 0.00 | 1.19 | 1.19 | 81 | 1018.3 |
| 20260507005538 | 10 | 319 | 0.0 | 0.0 | 0.00 | 1.19 | 1.19 | 81 | 1018.0 |
| 20260507005034 | 10 | 318 | 0.0 | 0.0 | 0.00 | 1.19 | 1.19 | 82 | 1018.1 |
| 20260507004532 | 10 | 318 | 0.0 | 0.0 | 0.00 | 1.19 | 1.19 | 81 | 1017.9 |
| 20260507004029 | 11 | 318 | 0.0 | 0.0 | 0.00 | 1.19 | 1.19 | 81 | 1017.6 |
| 20260507003524 | 11 | 317 | 0.0 | 0.0 | 0.00 | 1.19 | 1.19 | 78 | 1017.8 |
| 20260507003020 | 11 | 317 | 0.0 | 0.0 | 0.00 | 1.19 | 1.19 | 76 | 1017.5 |
| 20260507002516 | 11 | 317 | 0.0 | 0.0 | 0.00 | 1.19 | 1.19 | 75 | 1017.3 |
| 20260507002013 | 11 | 317 | 0.0 | 0.0 | 0.00 | 1.19 | 1.19 | 76 | 1017.4 |
| 20260507001509 | 11 | 317 | 0.0 | 0.0 | 0.00 | 1.19 | 1.19 | 75 | 1017.4 |
| 20260507001007 | 11 | 317 | 0.0 | 0.0 | 0.00 | 1.19 | 1.19 | 75 | 1017.1 |
| 20260507000502 | 11 | 317 | 0.0 | 0.0 | 0.00 | 1.19 | 1.19 | 73 | 1017.3 |
| 20260506235958 | 11 | 317 | 0.0 | 0.0 | 0.00 | 1.19 | 1.19 | 75 | 1017.1 |
| 20260506235456 | 11 | 317 | 0.0 | 0.0 | 0.00 | 1.19 | 1.19 | 77 | 1017.5 |
| 20260506234951 | 11 | 317 | 0.0 | 0.0 | 0.00 | 1.19 | 1.19 | 77 | 1017.2 |
| 20260506234449 | 12 | 317 | 0.0 | 0.0 | 0.00 | 1.19 | 1.19 | 77 | 1017.5 |
| 20260506233946 | 12 | 317 | 0.0 | 0.0 | 0.00 | 1.19 | 1.19 | 73 | 1017.3 |
| 20260506233443 | 12 | 317 | 0.0 | 0.0 | 0.00 | 1.19 | 1.19 | 69 | 1017.1 |
| 20260506232939 | 12 | 317 | 0.0 | 0.0 | 0.00 | 1.19 | 1.19 | 70 | 1017.2 |
| 20260506232436 | 13 | 317 | 0.0 | 0.0 | 0.00 | 1.19 | 1.19 | 67 | 1017.0 |
| 20260506231931 | 13 | 315 | 0.0 | 0.0 | 0.00 | 1.19 | 1.19 | 64 | 1017.2 |
| 20260506231429 | 13 | 318 | 0.0 | 0.0 | 0.00 | 1.19 | 1.19 | 64 | 1017.3 |
| 20260506230926 | 13 | 317 | 0.0 | 0.0 | 0.00 | 1.19 | 1.19 | 63 | 1017.4 |
| 20260506230422 | 13 | 317 | 0.0 | 0.0 | 0.00 | 1.19 | 1.19 | 65 | 1017.2 |
| 20260506225919 | 13 | 317 | 0.0 | 1.6 | 0.00 | 1.19 | 1.19 | 64 | 1017.3 |
| 20260506225417 | 13 | 291 | 1.6 | 1.6 | 0.00 | 1.19 | 1.19 | 62 | 1017.2 |
| 20260506224913 | 13 | 324 | 1.6 | 3.2 | 0.00 | 1.19 | 1.19 | 62 | 1017.5 |
| 20260506224411 | 13 | 296 | 1.6 | 1.6 | 0.00 | 1.19 | 1.19 | 61 | 1017.5 |
| 20260506223907 | 13 | 293 | 0.0 | 0.0 | 0.00 | 1.19 | 1.19 | 64 | 1017.7 |
| 20260506223402 | 13 | 289 | 0.0 | 1.6 | 0.00 | 1.19 | 1.19 | 61 | 1017.7 |
| 20260506222900 | 13 | 293 | 0.0 | 0.0 | 0.00 | 1.19 | 1.19 | 61 | 1017.7 |
| 20260506222355 | 13 | 303 | 0.0 | 1.6 | 0.00 | 1.19 | 1.19 | 62 | 1017.4 |
| 20260506221853 | 13 | 306 | 0.0 | 0.0 | 0.00 | 1.19 | 1.19 | 62 | 1017.6 |
| 20260506221350 | 13 | 306 | 0.0 | 1.6 | 0.00 | 1.19 | 1.19 | 61 | 1017.5 |
| 20260506220848 | 13 | 286 | 1.6 | 1.6 | 0.00 | 1.19 | 1.19 | 62 | 1017.7 |
| 20260506220343 | 13 | 311 | 1.6 | 1.6 | 0.00 | 1.19 | 1.19 | 64 | 1017.7 |
| 20260506215840 | 13 | 306 | 0.0 | 0.0 | 0.00 | 1.19 | 1.19 | 63 | 1017.7 |
| 20260506215336 | 13 | 309 | 0.0 | 0.0 | 0.00 | 1.19 | 1.19 | 62 | 1017.8 |
| 20260506214832 | 13 | 259 | 3.2 | 3.2 | 0.00 | 1.19 | 1.19 | 61 | 1017.7 |
| 20260506214329 | 13 | 317 | 1.6 | 1.6 | 0.00 | 1.19 | 1.19 | 60 | 1017.7 |
| 20260506213828 | 13 | 288 | 0.0 | 1.6 | 0.00 | 1.19 | 1.19 | 62 | 1017.5 |
| 20260506213324 | 13 | 293 | 1.6 | 1.6 | 0.00 | 1.19 | 1.19 | 60 | 1017.4 |
| 20260506212822 | 13 | 290 | 0.0 | 0.0 | 0.00 | 1.19 | 1.19 | 61 | 1017.6 |
| 20260506212317 | 13 | 290 | 1.6 | 1.6 | 0.00 | 1.19 | 1.19 | 61 | 1017.4 |
| 20260506211812 | 13 | 286 | 1.6 | 1.6 | 0.00 | 1.19 | 1.19 | 61 | 1017.4 |
| 20260506211309 | 13 | 318 | 0.0 | 0.0 | 0.00 | 1.19 | 1.19 | 61 | 1017.3 |
| 20260506210806 | 13 | 309 | 0.0 | 0.0 | 0.00 | 1.19 | 1.19 | 62 | 1017.2 |
| 20260506210257 | 13 | 319 | 0.0 | 0.0 | 0.00 | 1.19 | 1.19 | 61 | 1017.1 |
| 20260506205754 | 13 | 315 | 0.0 | 0.0 | 0.00 | 1.19 | 1.19 | 63 | 1017.0 |
| 20260506205250 | 13 | 332 | 0.0 | 1.6 | 0.00 | 1.19 | 1.19 | 61 | 1017.2 |
| 20260506204747 | 13 | 316 | 0.0 | 0.0 | 0.00 | 1.19 | 1.19 | 61 | 1016.9 |
| 20260506204245 | 13 | 290 | 0.0 | 0.0 | 0.00 | 1.19 | 1.19 | 62 | 1017.1 |
| 20260506203742 | 13 | 293 | 0.0 | 1.6 | 0.00 | 1.19 | 1.19 | 61 | 1017.3 |
| 20260506203239 | 13 | 292 | 1.6 | 1.6 | 0.00 | 1.19 | 1.19 | 65 | 1017.1 |
| 20260506202736 | 13 | 294 | 0.0 | 0.0 | 0.00 | 1.19 | 1.19 | 62 | 1017.3 |
| 20260506202233 | 13 | 288 | 1.6 | 1.6 | 0.00 | 1.19 | 1.19 | 60 | 1017.1 |
| 20260506201730 | 13 | 293 | 0.0 | 0.0 | 0.00 | 1.19 | 1.19 | 61 | 1017.1 |
| 20260506201227 | 13 | 295 | 0.0 | 1.6 | 0.00 | 1.19 | 1.19 | 62 | 1017.3 |
| 20260506200723 | 13 | 329 | 0.0 | 0.0 | 0.00 | 1.19 | 1.19 | 63 | 1017.2 |
| 20260506200220 | 13 | 289 | 1.6 | 1.6 | 0.00 | 1.19 | 1.19 | 60 | 1017.3 |
| 20260506195716 | 13 | 266 | 3.2 | 3.2 | 0.00 | 1.19 | 1.19 | 62 | 1017.1 |
| 20260506195213 | 13 | 281 | 3.2 | 3.2 | 0.00 | 1.19 | 1.19 | 64 | 1017.1 |
| 20260506194710 | 13 | 332 | 1.6 | 3.2 | 0.00 | 1.19 | 1.19 | 62 | 1017.2 |
| 20260506194206 | 14 | 288 | 0.0 | 1.6 | 0.00 | 1.19 | 1.19 | 61 | 1016.9 |
| 20260506193659 | 13 | 281 | 1.6 | 1.6 | 0.00 | 1.19 | 1.19 | 61 | 1016.8 |
| 20260506193155 | 14 | 322 | 0.0 | 0.0 | 0.00 | 1.19 | 1.19 | 60 | 1016.9 |
| 20260506192652 | 14 | 318 | 0.0 | 0.0 | 0.00 | 1.19 | 1.19 | 59 | 1016.9 |
| 20260506192148 | 13 | 291 | 0.0 | 0.0 | 0.00 | 1.19 | 1.19 | 61 | 1016.8 |
| 20260506191646 | 13 | 268 | 3.2 | 3.2 | 0.00 | 1.19 | 1.19 | 60 | 1017.0 |
| 20260506191141 | 13 | 291 | 1.6 | 1.6 | 0.00 | 1.19 | 1.19 | 60 | 1017.2 |
| 20260506190639 | 13 | 320 | 1.6 | 3.2 | 0.00 | 1.19 | 1.19 | 60 | 1017.1 |
| 20260506190135 | 13 | 22 | 1.6 | 3.2 | 0.00 | 1.19 | 1.19 | 63 | 1017.0 |
| 20260506185633 | 13 | 275 | 1.6 | 3.2 | 0.00 | 1.19 | 1.19 | 61 | 1017.0 |
| 20260506185129 | 13 | 293 | 1.6 | 1.6 | 0.00 | 1.19 | 1.19 | 60 | 1017.1 |
| 20260506184626 | 13 | 254 | 8.0 | 9.7 | 0.00 | 1.19 | 1.19 | 59 | 1016.8 |
| 20260506184123 | 14 | 308 | 0.0 | 0.0 | 0.00 | 1.19 | 1.19 | 60 | 1017.1 |
| 20260506183620 | 14 | 354 | 3.2 | 3.2 | 0.00 | 1.19 | 1.19 | 60 | 1017.0 |
| 20260506183116 | 15 | 296 | 1.6 | 1.6 | 0.00 | 1.19 | 1.19 | 61 | 1016.7 |
| 20260506182614 | 15 | 285 | 0.0 | 0.0 | 0.00 | 1.19 | 1.19 | 59 | 1016.8 |
| 20260506182111 | 15 | 256 | 1.6 | 3.2 | 0.00 | 1.19 | 1.19 | 58 | 1016.7 |
| 20260506181609 | 15 | 307 | 1.6 | 1.6 | 0.00 | 1.19 | 1.19 | 58 | 1016.8 |
| 20260506181105 | 14 | 27 | 3.2 | 3.2 | 0.00 | 1.19 | 1.19 | 59 | 1016.7 |
| 20260506180602 | 14 | 279 | 3.2 | 3.2 | 0.00 | 1.19 | 1.19 | 60 | 1016.9 |
| 20260506180059 | 14 | 271 | 3.2 | 4.8 | 0.00 | 1.19 | 1.19 | 61 | 1016.8 |
| 20260506175555 | 13 | 323 | 0.0 | 0.0 | 0.00 | 1.19 | 1.19 | 62 | 1017.1 |
| 20260506175051 | 13 | 298 | 1.6 | 1.6 | 0.00 | 1.19 | 1.19 | 64 | 1017.2 |
| 20260506174550 | 14 | 273 | 4.8 | 4.8 | 0.00 | 1.19 | 1.19 | 62 | 1017.1 |
| 20260506174045 | 14 | 268 | 3.2 | 4.8 | 0.00 | 1.19 | 1.19 | 62 | 1017.1 |
| 20260506173544 | 14 | 317 | 1.6 | 1.6 | 0.00 | 1.19 | 1.19 | 63 | 1017.0 |
| 20260506173040 | 14 | 312 | 1.6 | 3.2 | 0.00 | 1.19 | 1.19 | 62 | 1017.0 |
| 20260506172538 | 13 | 312 | 0.0 | 0.0 | 0.00 | 1.19 | 1.19 | 63 | 1017.2 |
| 20260506172034 | 13 | 292 | 0.0 | 0.0 | 0.00 | 1.19 | 1.19 | 66 | 1017.3 |
| 20260506171531 | 13 | 260 | 3.2 | 3.2 | 0.00 | 1.19 | 1.19 | 63 | 1017.2 |
| 20260506171029 | 13 | 313 | 1.6 | 1.6 | 0.00 | 1.19 | 1.19 | 62 | 1017.4 |
| 20260506170526 | 14 | 242 | 4.8 | 8.0 | 0.00 | 1.19 | 1.19 | 62 | 1017.1 |
| 20260506170023 | 14 | 242 | 3.2 | 3.2 | 0.00 | 1.19 | 1.19 | 62 | 1017.2 |
| 20260506165521 | 14 | 328 | 0.0 | 0.0 | 0.00 | 1.19 | 1.19 | 65 | 1017.3 |
| 20260506165012 | 14 | 309 | 0.0 | 0.0 | 0.00 | 1.19 | 1.19 | 64 | 1017.3 |
| 20260506164509 | 13 | 253 | 3.2 | 3.2 | 0.00 | 1.19 | 1.19 | 61 | 1017.3 |
| 20260506164007 | 13 | 295 | 1.6 | 1.6 | 0.00 | 1.19 | 1.19 | 64 | 1017.4 |
| 20260506163502 | 13 | 286 | 0.0 | 1.6 | 0.00 | 1.19 | 1.19 | 68 | 1017.0 |
| 20260506162956 | 12 | 269 | 1.6 | 1.6 | 0.00 | 1.19 | 1.19 | 66 | 1017.1 |
| 20260506162454 | 12 | 337 | 3.2 | 3.2 | 0.00 | 1.19 | 1.19 | 68 | 1017.2 |
| 20260506161945 | 12 | 324 | 1.6 | 3.2 | 0.00 | 1.19 | 1.19 | 69 | 1017.0 |
| 20260506161443 | 13 | 273 | 3.2 | 3.2 | 0.00 | 1.19 | 1.19 | 68 | 1017.3 |
| 20260506160941 | 13 | 295 | 1.6 | 1.6 | 0.00 | 1.19 | 1.19 | 66 | 1016.9 |
| 20260506160438 | 13 | 261 | 3.2 | 3.2 | 0.00 | 1.19 | 1.19 | 66 | 1017.5 |
| 20260506155935 | 13 | 356 | 1.6 | 1.6 | 0.00 | 1.19 | 1.19 | 67 | 1017.2 |
| 20260506155433 | 13 | 5 | 1.6 | 3.2 | 0.00 | 1.19 | 1.19 | 66 | 1017.0 |
| 20260506153559 | 13 | 267 | 1.6 | 1.6 | 0.00 | 1.19 | 1.19 | 68 | 1017.2 |
| 20260506153057 | 13 | 291 | 0.0 | 0.0 | 0.00 | 1.19 | 1.19 | 70 | 1017.4 |
| 20260506152553 | 12 | 342 | 0.0 | 0.0 | 0.00 | 1.19 | 1.19 | 69 | 1017.1 |
| 20260506152052 | 12 | 309 | 0.0 | 1.6 | 0.00 | 1.19 | 1.19 | 72 | 1017.3 |
| 20260506151549 | 12 | 272 | 4.8 | 4.8 | 0.00 | 1.19 | 1.19 | 71 | 1017.0 |
| 20260506151046 | 11 | 295 | 3.2 | 3.2 | 0.00 | 1.19 | 1.19 | 70 | 1016.5 |
| 20260506150542 | 12 | 313 | 1.6 | 1.6 | 0.00 | 1.19 | 1.19 | 71 | 1016.6 |
| 20260506150040 | 12 | 286 | 0.0 | 0.0 | 0.00 | 1.19 | 1.19 | 73 | 1016.4 |
| 20260506145536 | 12 | 13 | 1.6 | 1.6 | 0.00 | 1.19 | 1.19 | 74 | 1016.4 |
| 20260506145034 | 12 | 283 | 1.6 | 3.2 | 0.00 | 1.19 | 1.19 | 73 | 1016.5 |
| 20260506144530 | 12 | 318 | 0.0 | 1.6 | 0.00 | 1.19 | 1.19 | 75 | 1016.2 |
| 20260506144028 | 11 | 346 | 0.0 | 0.0 | 0.00 | 1.19 | 1.19 | 77 | 1016.1 |
| 20260506143525 | 11 | 351 | 0.0 | 1.6 | 0.00 | 1.19 | 1.19 | 80 | 1016.1 |
| 20260506143024 | 10 | 329 | 0.0 | 0.0 | 0.00 | 1.19 | 1.19 | 80 | 1016.2 |
| 20260506142521 | 10 | 291 | 1.6 | 1.6 | 0.00 | 1.19 | 1.19 | 83 | 1016.2 |
| 20260506142019 | 10 | 316 | 1.6 | 1.6 | 0.00 | 1.19 | 1.19 | 84 | 1016.2 |
| 20260506141517 | 10 | 286 | 1.6 | 1.6 | 0.00 | 1.19 | 1.19 | 83 | 1016.0 |
| 20260506141015 | 9 | 316 | 0.0 | 1.6 | 0.00 | 1.19 | 1.19 | 85 | 1016.1 |
| 20260506140512 | 9 | 324 | 1.6 | 1.6 | 0.00 | 1.19 | 1.19 | 87 | 1016.0 |
| 20260506140009 | 8 | 303 | 0.0 | 1.6 | 0.00 | 1.19 | 1.19 | 91 | 1016.0 |
| 20260506135506 | 8 | 292 | 1.6 | 1.6 | 0.00 | 1.19 | 1.19 | 93 | 1016.4 |
| 20260506135002 | 8 | 304 | 0.0 | 1.6 | 0.00 | 1.19 | 1.19 | 95 | 1016.3 |
| 20260506134458 | 8 | 310 | 0.0 | 0.0 | 0.00 | 1.19 | 1.19 | 98 | 1016.1 |
| 20260506133954 | 8 | 321 | 0.0 | 0.0 | 0.00 | 1.19 | 1.19 | 99 | 1016.0 |
| 20260506133452 | 7 | 324 | 0.0 | 0.0 | 0.00 | 1.19 | 1.19 | 99 | 1015.9 |
| 20260506132948 | 7 | 316 | 0.0 | 0.0 | 0.00 | 1.19 | 1.19 | 99 | 1015.9 |
| 20260506132445 | 7 | 344 | 1.6 | 1.6 | 0.00 | 1.19 | 1.19 | 99 | 1015.8 |
| 20260506131943 | 7 | 293 | 0.0 | 1.6 | 0.00 | 1.19 | 1.19 | 99 | 1015.9 |
| 20260506131439 | 7 | 293 | 0.0 | 1.6 | 0.00 | 1.19 | 1.19 | 99 | 1015.4 |
| 20260506130936 | 7 | 321 | 0.0 | 0.0 | 0.00 | 1.19 | 1.19 | 99 | 1015.4 |
| 20260506130433 | 7 | 306 | 0.0 | 0.0 | 0.00 | 1.19 | 1.19 | 99 | 1015.7 |
| 20260506125931 | 7 | 308 | 0.0 | 0.0 | 0.00 | 1.19 | 1.19 | 99 | 1015.9 |
| 20260506125429 | 7 | 311 | 0.0 | 0.0 | 0.00 | 1.19 | 1.19 | 99 | 1015.5 |
| 20260506124927 | 7 | 310 | 0.0 | 0.0 | 0.00 | 1.19 | 1.19 | 99 | 1015.3 |
| 20260506124424 | 7 | 319 | 0.0 | 0.0 | 0.00 | 1.19 | 1.19 | 99 | 1015.3 |
| 20260506123922 | 7 | 313 | 0.0 | 0.0 | 0.00 | 1.19 | 1.19 | 99 | 1015.3 |
| 20260506123420 | 7 | 310 | 0.0 | 0.0 | 0.00 | 1.19 | 1.19 | 99 | 1015.2 |
| 20260506122917 | 7 | 309 | 0.0 | 0.0 | 0.00 | 1.19 | 1.19 | 99 | 1015.1 |
| 20260506122414 | 7 | 319 | 0.0 | 0.0 | 0.00 | 1.19 | 1.19 | 99 | 1015.1 |
| 20260506121912 | 7 | 325 | 0.0 | 0.0 | 0.00 | 1.19 | 1.19 | 99 | 1015.3 |
| 20260506121408 | 7 | 317 | 0.0 | 0.0 | 0.00 | 1.19 | 1.19 | 99 | 1015.1 |
| 20260506120905 | 6 | 314 | 0.0 | 0.0 | 0.00 | 1.19 | 1.19 | 99 | 1015.0 |
| 20260506120403 | 6 | 311 | 0.0 | 0.0 | 0.00 | 1.19 | 1.19 | 99 | 1014.8 |
| 20260506115900 | 6 | 317 | 0.0 | 0.0 | 0.00 | 1.19 | 1.19 | 99 | 1015.1 |
| 20260506115358 | 6 | 310 | 0.0 | 0.0 | 0.00 | 1.19 | 1.19 | 99 | 1014.5 |
| 20260506114856 | 6 | 315 | 0.0 | 0.0 | 0.00 | 1.19 | 1.19 | 99 | 1014.6 |
| 20260506114353 | 6 | 308 | 0.0 | 0.0 | 0.00 | 1.19 | 1.19 | 99 | 1014.6 |
| 20260506113853 | 6 | 314 | 0.0 | 0.0 | 0.00 | 1.19 | 1.19 | 99 | 1014.3 |
| 20260506113349 | 6 | 314 | 0.0 | 0.0 | 0.00 | 1.19 | 1.19 | 99 | 1013.8 |
| 20260506112846 | 6 | 306 | 0.0 | 0.0 | 0.00 | 1.19 | 1.19 | 99 | 1013.6 |
| 20260506112343 | 6 | 309 | 0.0 | 0.0 | 0.00 | 1.19 | 1.19 | 99 | 1013.6 |
| 20260506111840 | 6 | 317 | 0.0 | 0.0 | 0.00 | 1.19 | 1.19 | 99 | 1014.1 |
| 20260506111338 | 6 | 320 | 0.0 | 0.0 | 0.00 | 1.19 | 1.19 | 99 | 1013.8 |
| 20260506110836 | 6 | 324 | 0.0 | 0.0 | 0.00 | 1.19 | 1.19 | 99 | 1014.1 |
| 20260506110333 | 6 | 317 | 0.0 | 0.0 | 0.00 | 1.19 | 1.19 | 99 | 1014.0 |
| 20260506105830 | 6 | 309 | 0.0 | 0.0 | 0.00 | 1.19 | 1.19 | 99 | 1014.4 |
| 20260506105326 | 6 | 321 | 0.0 | 1.6 | 0.00 | 1.19 | 1.19 | 99 | 1014.0 |
| 20260506104823 | 6 | 309 | 0.0 | 0.0 | 0.00 | 1.19 | 1.19 | 99 | 1013.7 |
| 20260506104321 | 6 | 303 | 0.0 | 0.0 | 0.00 | 1.19 | 1.19 | 99 | 1013.6 |
| 20260506103818 | 6 | 300 | 0.0 | 0.0 | 0.00 | 1.19 | 1.19 | 99 | 1013.7 |
| 20260506103316 | 6 | 299 | 0.0 | 0.0 | 0.00 | 1.19 | 1.19 | 99 | 1013.1 |
| 20260506102813 | 6 | 298 | 0.0 | 0.0 | 0.00 | 1.19 | 1.19 | 99 | 1013.0 |
| 20260506102311 | 6 | 293 | 1.6 | 1.6 | 0.00 | 1.19 | 1.19 | 99 | 1012.9 |
| 20260506101808 | 6 | 311 | 0.0 | 0.0 | 0.00 | 1.19 | 1.19 | 99 | 1012.9 |
| 20260506101304 | 6 | 327 | 0.0 | 0.0 | 0.00 | 1.19 | 1.19 | 99 | 1012.9 |
| 20260506100802 | 6 | 309 | 0.0 | 0.0 | 0.00 | 1.19 | 1.19 | 99 | 1013.1 |
| 20260506100300 | 6 | 315 | 0.0 | 0.0 | 0.00 | 1.19 | 1.19 | 99 | 1013.2 |
| 20260506095758 | 6 | 316 | 0.0 | 0.0 | 0.00 | 1.19 | 1.19 | 99 | 1013.4 |
| 20260506095255 | 6 | 307 | 0.0 | 0.0 | 0.00 | 1.19 | 1.19 | 99 | 1013.4 |
| 20260506094751 | 6 | 309 | 0.0 | 0.0 | 0.00 | 1.19 | 1.19 | 99 | 1013.0 |
| 20260506094250 | 6 | 307 | 0.0 | 0.0 | 0.00 | 1.19 | 1.19 | 99 | 1012.8 |
| 20260506093748 | 6 | 318 | 0.0 | 0.0 | 0.00 | 1.19 | 1.19 | 99 | 1012.6 |
| 20260506093245 | 6 | 308 | 0.0 | 0.0 | 0.00 | 1.19 | 1.19 | 99 | 1012.6 |
| 20260506092743 | 6 | 319 | 0.0 | 0.0 | 0.00 | 1.19 | 1.19 | 99 | 1012.5 |
| 20260506092241 | 6 | 316 | 0.0 | 0.0 | 0.00 | 1.19 | 1.19 | 99 | 1012.2 |
| 20260506091737 | 6 | 320 | 0.0 | 0.0 | 0.00 | 1.19 | 1.19 | 99 | 1012.3 |
| 20260506091235 | 6 | 331 | 0.0 | 0.0 | 0.00 | 1.19 | 1.19 | 99 | 1011.9 |
| 20260506090733 | 6 | 332 | 0.0 | 0.0 | 0.00 | 1.19 | 1.19 | 99 | 1012.0 |
| 20260506090229 | 6 | 331 | 0.0 | 1.6 | 0.00 | 1.19 | 1.19 | 99 | 1012.2 |
| 20260506085726 | 6 | 320 | 0.0 | 0.0 | 0.00 | 1.19 | 1.19 | 99 | 1012.4 |
| 20260506085222 | 6 | 312 | 0.0 | 0.0 | 0.00 | 1.19 | 1.19 | 99 | 1012.5 |
| 20260506084719 | 6 | 302 | 0.0 | 0.0 | 0.00 | 1.19 | 1.19 | 99 | 1012.3 |
| 20260506084215 | 6 | 317 | 0.0 | 0.0 | 0.00 | 1.19 | 1.19 | 99 | 1012.2 |
| 20260506083713 | 6 | 328 | 0.0 | 0.0 | 0.00 | 1.19 | 1.19 | 99 | 1012.3 |
| 20260506083210 | 6 | 324 | 0.0 | 0.0 | 0.13 | 1.19 | 1.19 | 99 | 1012.1 |
| 20260506082707 | 6 | 306 | 0.0 | 0.0 | 0.13 | 1.19 | 1.19 | 99 | 1012.2 |
| 20260506082203 | 6 | 323 | 0.0 | 0.0 | 0.13 | 1.19 | 1.19 | 99 | 1012.4 |
| 20260506081701 | 6 | 318 | 0.0 | 0.0 | 0.18 | 1.17 | 1.17 | 99 | 1012.2 |
| 20260506081158 | 6 | 320 | 0.0 | 0.0 | 0.18 | 1.17 | 1.17 | 99 | 1012.0 |
| 20260506080656 | 6 | 333 | 0.0 | 0.0 | 0.30 | 1.17 | 1.17 | 99 | 1012.2 |
| 20260506080152 | 6 | 273 | 1.6 | 1.6 | 0.30 | 1.14 | 1.14 | 99 | 1012.1 |
| 20260506073136 | 7 | 294 | 0.0 | 0.0 | 0.30 | 1.04 | 1.04 | 99 | 1012.2 |
| 20260506072633 | 7 | 279 | 0.0 | 1.6 | 0.18 | 1.02 | 1.02 | 99 | 1012.2 |
| 20260506072131 | 7 | 316 | 0.0 | 0.0 | 0.00 | 0.99 | 0.99 | 99 | 1012.2 |
| 20260506071628 | 7 | 332 | 0.0 | 0.0 | 0.13 | 0.99 | 0.99 | 99 | 1012.2 |
| 20260506071126 | 7 | 300 | 0.0 | 0.0 | 0.13 | 0.99 | 0.99 | 99 | 1012.4 |
| 20260506070622 | 7 | 276 | 0.0 | 0.0 | 0.00 | 0.97 | 0.97 | 99 | 1012.1 |
| 20260506070119 | 7 | 282 | 0.0 | 0.0 | 0.00 | 0.97 | 0.97 | 99 | 1012.1 |
| 20260506062057 | 8 | 325 | 0.0 | 1.6 | 0.30 | 0.89 | 0.89 | 99 | 1011.6 |
| 20260506061552 | 8 | 357 | 0.0 | 0.0 | 0.30 | 0.86 | 0.86 | 99 | 1011.5 |
| 20260506061050 | 8 | 328 | 0.0 | 0.0 | 0.30 | 0.84 | 0.84 | 99 | 1011.9 |
| 20260506060549 | 8 | 317 | 0.0 | 0.0 | 0.13 | 0.81 | 0.81 | 99 | 1011.5 |
| 20260506051017 | 8 | 303 | 0.0 | 0.0 | 0.48 | 0.56 | 0.56 | 99 | 1012.5 |
| 20260506050515 | 8 | 291 | 0.0 | 0.0 | 0.30 | 0.51 | 0.51 | 99 | 1012.1 |
| 20260506045005 | 8 | 338 | 0.0 | 0.0 | 0.48 | 0.46 | 0.46 | 99 | 1011.5 |
| 20260506044504 | 8 | 295 | 0.0 | 0.0 | 0.43 | 0.43 | 0.43 | 99 | 1011.4 |
| 20260506044000 | 8 | 334 | 0.0 | 1.6 | 0.13 | 0.38 | 0.38 | 99 | 1011.5 |
| 20260506043457 | 8 | 332 | 0.0 | 0.0 | 0.18 | 0.36 | 0.36 | 99 | 1011.8 |
| 20260506042955 | 9 | 300 | 0.0 | 1.6 | 0.48 | 0.36 | 0.36 | 99 | 1011.9 |
| 20260506042454 | 9 | 333 | 0.0 | 0.0 | 0.43 | 0.33 | 0.33 | 99 | 1011.6 |
| 20260506041952 | 10 | 294 | 3.2 | 3.2 | 0.79 | 0.30 | 0.30 | 99 | 1011.8 |
| 20260506041450 | 10 | 282 | 1.6 | 1.6 | 1.27 | 0.25 | 0.25 | 99 | 1011.4 |
| 20260506040947 | 10 | 308 | 0.0 | 0.0 | 1.19 | 0.15 | 0.15 | 99 | 1011.5 |
| 20260506040444 | 10 | 331 | 0.0 | 0.0 | 0.79 | 0.05 | 0.05 | 99 | 1011.5 |
| 20260506035940 | 10 | 303 | 1.6 | 1.6 | 0.36 | 1.65 | 1.65 | 99 | 1011.6 |
| 20260506035437 | 10 | 330 | 0.0 | 1.6 | 0.13 | 1.60 | 1.60 | 99 | 1011.2 |
| 20260506034934 | 10 | 316 | 0.0 | 0.0 | 0.13 | 1.60 | 1.60 | 99 | 1011.4 |
| 20260506034431 | 10 | 312 | 0.0 | 0.0 | 0.00 | 1.57 | 1.57 | 99 | 1011.1 |
| 20260506033928 | 10 | 307 | 0.0 | 0.0 | 0.00 | 1.57 | 1.57 | 99 | 1011.2 |
| 20260506033426 | 10 | 318 | 0.0 | 0.0 | 0.00 | 1.57 | 1.57 | 99 | 1011.2 |